NM5I Weather Reports


time (UTC)temp
C
wind
direction
speed
KPH
gust
KPH
rain 1hr
cm
rain 24hr
cm
rain mn
cm
humidity
%
barometer
mb
20260505152149 23 207 9.7 24.1 0.00 0.00 0.00 84 1006.7
20260505151210 23 210 11.3 25.7 0.00 0.00 0.00 84 1006.9
20260505150144 23 172 11.3 27.4 0.00 0.00 0.00 84 1006.4
20260505140203 22 207 6.4 19.3 0.00 0.00 0.00 86 1006.9
20260505130218 21 207 8.0 22.5 0.00 0.00 0.00 89 1006.7
20260505123144 21 182 11.3 20.9 0.00 0.00 0.00 88 1006.4
20260505122219 21 221 9.7 24.1 0.00 0.00 0.00 88 1006.3
20260505121200 21 184 9.7 22.5 0.00 0.00 0.00 88 1006.3
20260505120157 21 174 11.3 22.5 0.00 0.00 0.00 88 1006.1
20260505115133 21 164 11.3 30.6 0.00 0.00 0.00 88 1005.9
20260505114204 21 178 9.7 25.7 0.00 0.00 0.00 87 1005.9
20260505113219 21 234 12.9 24.1 0.00 0.00 0.00 87 1005.9
20260505112150 21 183 8.0 19.3 0.00 0.00 0.00 87 1005.9
20260505111203 21 148 8.0 19.3 0.00 0.00 0.00 87 1005.9
20260505110917 21 162 9.7 32.2 0.00 0.00 0.00 87 1006.0
20260505110129 21 159 14.5 32.2 0.00 0.00 0.00 87 1006.0
20260505102221 21 200 4.8 24.1 0.00 0.00 0.00 87 1005.8
20260505101149 21 275 9.7 24.1 0.00 0.00 0.00 87 1005.7
20260505100213 21 208 11.3 32.2 0.00 0.00 0.00 87 1005.8
20260505095243 21 238 8.0 22.5 0.00 0.00 0.00 87 1005.7
20260505094145 21 183 8.0 33.8 0.00 0.00 0.00 87 1005.6
20260505093207 20 225 9.7 20.9 0.00 0.00 0.00 87 1005.7
20260505092134 20 279 9.7 25.7 0.00 0.00 0.00 87 1005.8
20260505091204 20 171 6.4 24.1 0.00 0.00 0.00 87 1005.8
20260505090132 20 173 9.7 30.6 0.00 0.00 0.00 87 1006.0
20260505085215 20 198 11.3 33.8 0.00 0.00 0.00 87 1006.1
20260505084224 20 178 11.3 24.1 0.00 0.00 0.00 87 1006.3
20260505083131 20 191 6.4 19.3 0.00 0.00 0.00 87 1006.3
20260505082159 20 202 6.4 16.1 0.00 0.00 0.00 87 1006.4
20260505081239 20 200 4.8 17.7 0.00 0.00 0.00 87 1006.5
20260505080923 20 105 8.0 17.7 0.00 0.00 0.00 87 1006.5
20260505080225 20 213 9.7 17.7 0.00 0.00 0.00 87 1006.5
20260505072201 20 160 6.4 19.3 0.00 0.00 0.00 86 1007.0
20260505071224 20 211 8.0 30.6 0.00 0.00 0.00 85 1007.3
20260505070142 20 200 4.8 16.1 0.00 0.00 0.00 85 1007.2
20260505065154 20 191 8.0 24.1 0.00 0.00 0.00 85 1007.2
20260505064140 21 242 8.0 24.1 0.00 0.00 0.00 84 1007.3
20260505063128 21 266 8.0 20.9 0.00 0.00 0.00 84 1007.5
20260505062126 21 205 6.4 22.5 0.00 0.00 0.00 84 1007.7
20260505061133 21 203 6.4 16.1 0.00 0.00 0.00 83 1007.6
20260505060152 21 234 8.0 24.1 0.00 0.00 0.00 82 1007.7
20260505055139 21 190 8.0 16.1 0.00 0.00 0.00 82 1007.6
20260505054125 21 167 6.4 20.9 0.00 0.00 0.00 82 1007.8
20260505053133 21 159 6.4 16.1 0.00 0.00 0.00 81 1007.8
20260505052146 21 200 8.0 17.7 0.00 0.00 0.00 81 1007.8
20260505051135 21 180 8.0 20.9 0.00 0.00 0.00 80 1007.9
20260505050835 21 189 9.7 20.9 0.00 0.00 0.00 80 1008.0
20260505050139 21 178 4.8 22.5 0.00 0.00 0.00 80 1008.0
20260505041209 22 109 8.0 17.7 0.00 0.00 0.00 77 1008.0
20260505040217 22 198 6.4 20.9 0.00 0.00 0.00 76 1008.0
20260505035133 22 200 4.8 16.1 0.00 0.00 0.00 75 1008.0
20260505034209 22 197 6.4 19.3 0.00 0.00 0.00 74 1008.0
20260505033136 22 195 6.4 11.3 0.00 0.00 0.00 73 1007.9
20260505032217 22 226 6.4 14.5 0.00 0.00 0.00 73 1007.8
20260505031145 23 200 3.2 14.5 0.00 0.00 0.00 72 1007.7
20260505030214 23 176 4.8 16.1 0.00 0.00 0.00 71 1007.7
20260505025216 23 209 8.0 16.1 0.00 0.00 0.00 70 1007.6
20260505024153 23 221 3.2 12.9 0.00 0.00 0.00 70 1007.5
20260505023218 23 206 6.4 14.5 0.00 0.00 0.00 69 1007.7
20260505022133 23 200 4.8 16.1 0.00 0.00 0.00 68 1007.7
20260505021153 23 192 3.2 12.9 0.00 0.00 0.00 68 1007.8
20260505020200 23 153 3.2 11.3 0.00 0.00 0.00 67 1007.7
20260505015129 23 164 3.2 14.5 0.00 0.00 0.00 66 1007.7
20260505014205 24 206 6.4 14.5 0.00 0.00 0.00 65 1007.6
20260505013131 24 206 4.8 14.5 0.00 0.00 0.00 65 1007.5
20260505011154 25 172 6.4 12.9 0.00 0.00 0.00 63 1007.5
20260505010125 25 186 6.4 14.5 0.00 0.00 0.00 62 1007.5
20260505005159 25 184 4.8 11.3 0.00 0.00 0.00 61 1007.5
20260505004138 25 162 3.2 16.1 0.00 0.00 0.00 61 1007.3
20260505003207 25 202 9.7 16.1 0.00 0.00 0.00 59 1007.3
20260505002137 25 175 4.8 11.3 0.00 0.00 0.00 59 1007.4
20260505001206 26 186 4.8 17.7 0.00 0.00 0.00 58 1007.5
20260505000159 26 232 9.7 25.7 0.00 0.00 0.00 57 1007.6
20260504235233 26 217 8.0 25.7 0.00 0.00 0.00 57 1007.9
20260504234126 26 222 11.3 19.3 0.00 0.00 0.00 56 1007.9
20260504233200 27 180 4.8 29.0 0.00 0.00 0.00 56 1008.1
20260504232125 26 209 11.3 17.7 0.00 0.00 0.00 56 1008.0
20260504231158 27 148 8.0 17.7 0.00 0.00 0.00 55 1008.0
20260504230224 26 183 9.7 22.5 0.00 0.00 0.00 55 1008.0
20260504223148 27 121 8.0 30.6 0.00 0.00 0.00 54 1008.4
20260504222220 27 210 8.0 22.5 0.00 0.00 0.00 53 1008.4
20260504221144 27 320 9.7 20.9 0.00 0.00 0.00 52 1008.6
20260504220125 27 226 6.4 19.3 0.00 0.00 0.00 50 1008.6
20260504213258 27 257 9.7 20.9 0.00 0.00 0.00 50 1009.2
20260504212139 27 213 8.0 27.4 0.00 0.00 0.00 49 1009.5
20260504211211 27 306 3.2 22.5 0.00 0.00 0.00 49 1009.6
20260504210208 27 143 12.9 27.4 0.00 0.00 0.00 48 1009.9
20260504205243 27 285 14.5 29.0 0.00 0.00 0.00 48 1010.1
20260504204150 27 216 9.7 19.3 0.00 0.00 0.00 49 1010.3
20260504203125 27 150 9.7 19.3 0.00 0.00 0.00 50 1010.4
20260504202158 26 127 6.4 27.4 0.00 0.00 0.00 49 1010.5
20260504201144 26 169 4.8 24.1 0.00 0.00 0.00 49 1010.7
20260504200201 26 178 9.7 22.5 0.00 0.00 0.00 49 1010.8
20260504195131 26 235 4.8 27.4 0.00 0.00 0.00 49 1011.1
20260504194204 26 224 9.7 27.4 0.00 0.00 0.00 50 1011.2
20260504193212 26 193 12.9 24.1 0.00 0.00 0.00 49 1011.5
20260504192143 26 191 4.8 17.7 0.00 0.00 0.00 50 1011.6
20260504191207 26 228 9.7 19.3 0.00 0.00 0.00 51 1011.7
20260504190148 26 161 8.0 19.3 0.00 0.00 0.00 49 1012.0
20260504185214 26 40 4.8 16.1 0.00 0.00 0.00 49 1012.0
20260504184146 26 159 12.9 27.4 0.00 0.00 0.00 49 1012.0
20260504183219 26 150 11.3 17.7 0.00 0.00 0.00 51 1012.3
20260504181149 25 179 9.7 22.5 0.00 0.00 0.00 49 1012.7
20260504180135 25 254 8.0 19.3 0.00 0.00 0.00 51 1012.7
20260504175210 25 149 4.8 20.9 0.00 0.00 0.00 51 1012.8
20260504174134 25 143 11.3 20.9 0.00 0.00 0.00 50 1013.0
20260504173152 25 173 6.4 27.4 0.00 0.00 0.00 51 1013.4
20260504172221 24 177 9.7 29.0 0.00 0.00 0.00 51 1013.5
20260504171200 23 169 8.0 24.1 0.00 0.00 0.00 54 1013.5
20260504170906 23 205 16.1 25.7 0.00 0.00 0.00 53 1013.5
20260504160220 22 207 16.1 25.7 0.00 0.00 0.00 60 1014.2